Location: Munkebjergskolens Observatorium
(55.3864°N, 10.3987°E)
Time: 23:13:32
(UTC+01:00)

DELTA 1 DEB - Pass Details

Date: 09 December 2023
Orbit: 783 x 826 km, 98.9° (Epoch: 04 March)

Event Time Altitude Azimuth Distance (km) Brightness Sun altitude
Rises 17:01:28 0° 142° (SE) 3,304 ? -9.4°
Reaches altitude 10° 17:03:50 10° 137° (SE) 2,385 ? -9.7°
Maximum altitude 17:08:54 50° 64° (ENE) 1,035 ? -10.4°
Drops below altitude 10° 17:14:03 10° 351° (N) 2,427 ? -11.0°
Sets 17:16:29 0° 346° (NNW) 3,369 ? -11.3°
